Location: Newark
(25.0000°N, 73.5000°E)
Time: 15:26:15
(UTC+00:00)

Tiangong - Pass Details

Date: 01 July 2021
Orbit: 373 x 386 km, 41.5° (Epoch: 02 August)

Event Time Altitude Azimuth Distance (km) Brightness Sun altitude
Exits shadow 22:53:54 11° 313° (NW) 1,311 3.6 -17.5°
Maximum altitude 22:56:48 61° 35° (NE) 430 1.5 -17.0°
Drops below altitude 10° 22:59:54 10° 116° (ESE) 1,385 4.2 -16.5°
Sets 23:01:59 0° 120° (ESE) 2,238 5.3 -16.1°
